Clearfield, PA

9:25 PM EDT on April 24, 2017 (GMT -0400)
Clearfield-Lawrence

Weather History for KFIG - February, 2013

Change the Weather History Date:

Wednesday, February 13, 2013

  Actual Average (KDUJ) Record (KDUJ)
Temperature  
Mean Temperature 28 °F -  
Max Temperature 39 °F 31 °F 61 °F (1990)
Min Temperature 18 °F 15 °F -3 °F (1967)
Degree Days  
Heating Degree Days 36    
Moisture  
Dew Point 25 °F    
Average Humidity 87    
Maximum Humidity 100    
Minimum Humidity 55    
Precipitation  
Precipitation 0.08 in - - ()
Sea Level Pressure  
Sea Level Pressure 29.77 in    
Wind  
Wind Speed 4 mph (WNW)    
Max Wind Speed 9 mph    
Max Gust Speed 17 mph    
Visibility 4 miles    
Events Fog , Snow    
Averages and records for this station are not official NWS values.
T = Trace of Precipitation, MM = Missing Value Source: NWS Daily Summary

Daily Weather History Graph

Daily Weather History Graph

Search for Another Location

Airport or City:

Trip Planner

Search our weather history database for the weather conditions in past years. The results will help you decide how hot, cold, wet, or windy it might be!

Date:

Astronomy

Feb. 13, 2013 Rise Set
Actual Time 7:10 AM EST 5:45 PM EST
Civil Twilight 6:42 AM EST 6:14 PM EST
Nautical Twilight 6:09 AM EST 6:46 PM EST
Astronomical Twilight 5:37 AM EST 7:18 PM EST
Moon 8:36 AM EST (2/13) 9:49 PM EST (2/13)
Length of Visible Light 11h 32m
Length of Day
10h 35m
Waxing Crescent, 13% of the Moon is Illuminated
Feb 13
Waxing Crescent
Feb 17
First Quarter
Feb 25
Full
Mar 4
Last Quarter
Mar 11
New

Hourly Weather History & Observations

Time (EST) Temp. Windchill Dew Point Humidity Pressure Visibility Wind Dir Wind Speed Gust Speed Precip Events Conditions
12:54 AM 21.0 °F 16.2 °F 19.0 °F 92% 29.96 in 8.0 mi South 3.5 mph - N/A   Clear
1:54 AM 19.9 °F 12.1 °F 18.0 °F 92% 29.94 in 8.0 mi North 5.8 mph - N/A   Clear
2:54 AM 19.9 °F 14.9 °F 18.0 °F 92% 29.92 in 9.0 mi North 3.5 mph - N/A   Clear
3:54 AM 19.0 °F 11.1 °F 17.1 °F 92% 29.91 in 7.0 mi North 5.8 mph - N/A   Clear
4:54 AM 18.0 °F 9.8 °F 16.0 °F 92% 29.91 in 6.0 mi North 5.8 mph - N/A   Clear
5:54 AM 18.0 °F 11.1 °F 16.0 °F 92% 29.90 in 8.0 mi NNE 4.6 mph - N/A   Clear
6:54 AM 18.0 °F 12.7 °F 16.0 °F 92% 29.89 in 8.0 mi North 3.5 mph - N/A   Clear
7:54 AM 19.9 °F 14.9 °F 18.0 °F 92% 29.87 in 6.0 mi NE 3.5 mph - N/A   Clear
8:54 AM 21.9 °F 15.7 °F 19.9 °F 92% 29.86 in 6.0 mi NNE 4.6 mph - N/A   Clear
9:54 AM 25.0 °F 18.1 °F 21.9 °F 88% 29.83 in 8.0 mi NE 5.8 mph - N/A   Clear
10:54 AM 28.9 °F 23.9 °F 24.1 °F 82% 29.82 in 10.0 mi ENE 4.6 mph - N/A   Clear
11:54 AM 35.1 °F 32.2 °F 25.0 °F 67% 29.78 in 10.0 mi NNE 3.5 mph - N/A   Mostly Cloudy
12:54 PM 37.0 °F - 25.0 °F 62% 29.77 in 10.0 mi Calm Calm - N/A   Clear
1:54 PM 37.9 °F 34.4 °F 26.1 °F 62% 29.73 in 10.0 mi North 4.6 mph - N/A   Clear
2:54 PM 39.0 °F 35.7 °F 24.1 °F 55% 29.71 in 10.0 mi ESE 4.6 mph - N/A   Overcast
3:54 PM 37.9 °F - 24.1 °F 57% 29.70 in 10.0 mi Calm Calm - N/A   Overcast
4:54 PM 37.0 °F 34.5 °F 24.1 °F 59% 29.70 in 10.0 mi SSE 3.5 mph - N/A   Overcast
5:21 PM 33.8 °F 27.0 °F 26.6 °F 75% 29.66 in 2.5 mi SSW 8.1 mph 17.3 mph 0.00 in Snow Light Snow
5:30 PM 33.8 °F 26.4 °F 28.4 °F 81% 29.66 in 1.0 mi SSW 9.2 mph - 0.00 in Snow Light Snow
5:54 PM 32.0 °F 28.7 °F 30.0 °F 92% 29.73 in 1.0 mi SSW 3.5 mph - 0.01 in Snow Light Snow
5:57 PM 32.0 °F 28.7 °F 30.2 °F 93% 29.67 in 1.0 mi SW 3.5 mph - 0.00 in Snow Light Snow
6:14 PM 32.0 °F - 30.2 °F 93% 29.67 in 0.8 mi Calm Calm - 0.01 in Snow Light Snow
6:39 PM 32.0 °F - 30.2 °F 93% 29.67 in 1.0 mi Calm Calm - 0.04 in Snow Light Snow
6:54 PM 32.0 °F - 30.9 °F 96% 29.74 in 1.2 mi Calm Calm - 0.04 in Snow Light Snow
7:21 PM 32.0 °F - 30.2 °F 93% 29.68 in 1.0 mi Calm Calm - 0.01 in Snow Light Snow
7:52 PM 32.0 °F - 30.2 °F 93% 29.69 in 0.5 mi Calm Calm - 0.02 in Fog , Snow Snow
7:54 PM 32.0 °F - 30.9 °F 96% 29.74 in 0.5 mi Calm Calm - 0.03 in Fog , Snow Snow
8:29 PM 32.0 °F - 30.2 °F 93% 29.69 in 0.5 mi Calm Calm - 0.00 in Fog , Snow Light Snow
8:44 PM 30.2 °F - 30.2 °F 100% 29.69 in 0.5 mi Calm Calm - 0.00 in Fog Light Freezing Fog
8:54 PM 30.9 °F - 30.0 °F 96% 29.75 in 0.2 mi Calm Calm - 0.00 in Fog Light Freezing Fog
9:54 PM 30.9 °F 27.5 °F 30.0 °F 96% 29.76 in 0.2 mi WSW 3.5 mph - N/A Fog Light Freezing Fog
10:54 PM 28.0 °F 24.2 °F 26.1 °F 92% 29.77 in 0.2 mi SW 3.5 mph - N/A Fog Light Freezing Fog
11:02 PM 28.4 °F 24.6 °F 26.6 °F 93% 29.72 in 0.8 mi SW 3.5 mph - N/A   Mist
11:11 PM 28.4 °F 23.3 °F 26.6 °F 93% 29.73 in 0.5 mi SW 4.6 mph - N/A Fog Light Freezing Fog
11:16 PM 28.4 °F 23.3 °F 26.6 °F 93% 29.73 in 1.2 mi WSW 4.6 mph - N/A   Partly Cloudy
11:26 PM 28.4 °F 23.3 °F 26.6 °F 93% 29.73 in 3.0 mi SW 4.6 mph - N/A   Partly Cloudy
11:54 PM 27.0 °F 23.0 °F 26.1 °F 96% 29.78 in 5.0 mi West 3.5 mph - N/A   Clear